ORBCOMM FM06 1 25118U 97084G 26235.55732778 .00001037 00000+0 31745-3 0 9990 2 25118 45.0134 88.3509 0000173 356.4980 20.4809 14.47700990504154 ORBCOMM FM04 1 25159U 98007C 26235.13994147 .00000602 00000+0 25097-3 0 9995 2 25159 107.9615 307.2231 0041675 211.0581 148.8094 14.35832365486206 ORBCOMM FM19 1 25415U 98046C 26235.33610419 .00000591 00000+0 23279-3 0 9999 2 25415 44.9936 284.3503 0005661 272.3675 186.4306 14.39602167466451 ORBCOMM FM20 1 25416U 98046D 26235.60569434 .00000392 00000+0 17465-3 0 9999 2 25416 44.9942 291.7416 0002932 256.7169 103.3352 14.38146034466494 ORBCOMM FM27 1 25481U 98053G 26235.45151859 .00000696 00000+0 26787-3 0 9994 2 25481 45.0065 15.8401 0001820 197.1238 162.9550 14.39243993459927 ORBCOMM FM32 1 25982U 99065C 26235.57965750 .00000538 00000+0 22624-3 0 9991 2 25982 45.0140 214.2239 0006101 11.1933 348.9050 14.37212033396789 ORBCOMM FM109 1 40086U 14040A 26234.73537454 .00000333 00000+0 10657-3 0 9992 2 40086 47.0028 136.8389 0001156 191.9938 168.0920 14.58898239644065 ORBCOMM FM110 1 41182U 15081D 26235.49192930 .00000386 00000+0 11773-3 0 9994 2 41182 47.0024 43.1820 0002478 19.9969 340.1014 14.58963984567454 ORBCOMM FM118 1 41183U 15081E 26235.52679869 .00000393 00000+0 11922-3 0 9994 2 41183 47.0047 43.3681 0002835 333.3938 26.6802 14.58947127567567 ORBCOMM FM112 1 41184U 15081F 26235.59839730 .00000426 00000+0 12623-3 0 9993 2 41184 46.9998 311.4577 0002863 178.6082 181.4812 14.58935797568792 ORBCOMM FM113 1 41185U 15081G 26235.57762404 .00000231 00000+0 85099-4 0 9997 2 41185 47.0015 311.9706 0001741 192.2920 167.7924 14.58914486568772 ORBCOMM FM108 1 41187U 15081J 26235.40172322 .00000412 00000+0 12317-3 0 9998 2 41187 47.0036 224.3869 0001703 175.6860 184.4041 14.58953867569896 ORBCOMM FM117 1 41188U 15081K 26235.36782268 .00000231 00000+0 85026-4 0 9997 2 41188 46.9999 223.1653 0002255 178.3292 181.7602 14.58937152569930 ORBCOMM FM116 1 41189U 15081L 26235.62216674 .00000381 00000+0 11658-3 0 9995 2 41189 47.0032 311.7597 0001280 328.3348 31.7461 14.58940046568783